VR2HK-13 Weather Reports


Display with metric or nautical units.
time (UTC)temp
F
wind
direction
speed
MPH
gust
MPH
rain 1hr
in
rain 24hr
in
rain mn
in
humidity
%
barometer
mb
20260903035705 85 229 19.0 25.0 0.00 0.00 0.00 70 999.1
20260903035503 85 180 10.0 22.0 0.00 0.00 0.00 70 999.2
20260903035154 85 237 14.0 25.0 0.00 0.00 0.00 70 999.2
20260903035003 85 178 16.0 26.0 0.00 0.00 0.00 70 999.3
20260903034644 85 171 15.0 28.0 0.00 0.00 0.00 70 999.2
20260903034503 85 187 18.0 28.0 0.00 0.00 0.00 69 999.3
20260903034135 85 201 18.0 25.0 0.00 0.00 0.00 69 999.3
20260903034002 85 156 12.0 26.0 0.00 0.00 0.00 70 999.5
20260903033624 85 153 18.0 27.0 0.00 0.00 0.00 69 999.4
20260903033503 85 194 18.0 27.0 0.00 0.00 0.00 69 999.4
20260903033114 85 226 13.0 28.0 0.00 0.00 0.00 70 999.6
20260903033003 85 117 16.0 28.0 0.00 0.00 0.00 69 999.5
20260903032604 85 245 14.0 21.0 0.00 0.00 0.00 70 999.5
20260903032502 85 228 12.0 21.0 0.00 0.00 0.00 70 999.5
20260903032054 85 190 10.0 28.0 0.00 0.00 0.00 70 999.5
20260903032003 85 229 13.0 28.0 0.00 0.00 0.00 70 999.6
20260903031545 85 182 11.0 21.0 0.00 0.00 0.00 70 999.6
20260903031503 85 165 11.0 20.0 0.00 0.00 0.00 70 999.6
20260903031034 84 208 16.0 26.0 0.00 0.00 0.00 70 999.6
20260903031003 84 214 17.0 26.0 0.00 0.00 0.00 70 999.5
20260903030524 84 159 13.0 19.0 0.00 0.00 0.00 70 999.6
20260903030503 84 223 13.0 20.0 0.00 0.00 0.00 70 999.5
20260903030014 84 206 14.0 22.0 0.00 0.00 0.00 70 999.7
20260903030002 84 218 13.0 22.0 0.00 0.00 0.00 71 999.6
20260903025505 83 156 11.0 18.0 0.00 0.00 0.00 71 999.6
20260903025503 83 168 11.0 18.0 0.00 0.00 0.00 71 999.6
20260903024954 83 198 11.0 21.0 0.00 0.00 0.00 71 999.6
20260903024503 83 167 12.0 21.0 0.00 0.00 0.00 71 999.7
20260903024444 83 188 11.0 21.0 0.00 0.00 0.00 71 999.6
20260903024003 83 211 12.0 22.0 0.00 0.00 0.00 71 999.6
20260903023935 83 174 15.0 22.0 0.00 0.00 0.00 71 999.6
20260903023502 83 220 15.0 21.0 0.00 0.00 0.00 71 999.5
20260903023424 83 222 14.0 21.0 0.00 0.00 0.00 71 999.5
20260903023003 83 223 13.0 20.0 0.00 0.00 0.00 71 999.5
20260903022914 83 286 12.0 20.0 0.00 0.00 0.00 71 999.6
20260903022502 83 197 13.0 22.0 0.00 0.00 0.00 71 999.6
20260903022404 83 253 14.0 22.0 0.00 0.00 0.00 71 999.5
20260903022003 83 252 12.0 20.0 0.00 0.00 0.00 71 999.6
20260903021502 82 191 14.0 21.0 0.00 0.00 0.00 71 999.5
20260903021343 82 210 14.0 21.0 0.00 0.00 0.00 71 999.5
20260903021003 82 218 12.0 23.0 0.00 0.00 0.00 72 999.6
20260903020834 82 229 15.0 23.0 0.00 0.00 0.00 71 999.6
20260903020502 83 221 13.0 20.0 0.00 0.00 0.00 71 999.6
20260903020323 83 176 12.0 21.0 0.00 0.00 0.00 71 999.5
20260903020002 83 236 15.0 24.0 0.00 0.00 0.00 71 999.6
20260903015814 83 252 14.0 24.0 0.00 0.00 0.00 71 999.6
20260903015501 82 233 13.0 24.0 0.00 0.00 0.00 72 999.6
20260903015305 82 181 13.0 24.0 0.00 0.00 0.00 72 999.6
20260903015002 82 248 12.0 22.0 0.00 0.00 0.00 72 999.6
20260903014754 82 250 12.0 22.0 0.00 0.00 0.00 72 999.6
20260903014503 82 226 14.0 21.0 0.00 0.00 0.00 72 999.6
20260903014243 82 200 10.0 23.0 0.00 0.00 0.00 72 999.6
20260903014002 82 219 15.0 23.0 0.00 0.00 0.00 72 999.5
20260903013734 82 188 13.0 24.0 0.00 0.00 0.00 72 999.6
20260903013503 82 217 12.0 24.0 0.00 0.00 0.00 72 999.7
20260903013223 82 175 12.0 21.0 0.00 0.00 0.00 72 999.6
20260903013002 82 201 13.0 21.0 0.00 0.00 0.00 72 999.6
20260903012714 82 153 14.0 20.0 0.00 0.00 0.00 72 999.6
20260903012502 82 223 11.0 19.0 0.00 0.00 0.00 72 999.6
20260903012203 82 168 12.0 24.0 0.00 0.00 0.00 72 999.6
20260903012002 82 205 12.0 26.0 0.00 0.00 0.00 72 999.6
20260903011653 82 135 14.0 26.0 0.00 0.00 0.00 72 999.7
20260903011502 82 260 11.0 19.0 0.00 0.00 0.00 72 999.6
20260903011001 81 197 13.0 23.0 0.00 0.00 0.00 72 999.6
20260903010633 81 186 12.0 20.0 0.00 0.00 0.00 73 999.6
20260903010502 81 221 12.0 20.0 0.00 0.00 0.00 73 999.6
20260903010123 81 229 14.0 20.0 0.00 0.00 0.00 73 999.6
20260903010002 81 245 11.0 20.0 0.00 0.00 0.00 73 999.6
20260903005613 81 190 11.0 20.0 0.00 0.00 0.00 73 999.7
20260903005502 81 186 13.0 20.0 0.00 0.00 0.00 73 999.7
20260903005103 81 182 13.0 22.0 0.00 0.00 0.00 73 999.6
20260903005001 81 214 13.0 22.0 0.00 0.00 0.00 73 999.6
20260903004553 81 206 14.0 24.0 0.00 0.00 0.00 72 999.5
20260903004502 81 140 13.0 24.0 0.00 0.00 0.00 73 999.6
20260903004002 81 222 12.0 22.0 0.00 0.00 0.00 73 999.7
20260903003533 81 248 8.0 24.0 0.00 0.00 0.00 73 999.7
20260903003501 80 184 8.0 24.0 0.00 0.00 0.00 73 999.7
20260903003023 80 215 14.0 23.0 0.00 0.00 0.00 73 999.6
20260903003002 80 177 14.0 23.0 0.00 0.00 0.00 73 999.7
20260903002513 80 190 14.0 23.0 0.00 0.00 0.00 73 999.7
20260903002501 80 158 13.0 20.0 0.00 0.00 0.00 73 999.7
20260903002004 80 201 10.0 20.0 0.00 0.00 0.00 73 999.6
20260903002001 80 224 10.0 20.0 0.00 0.00 0.00 73 999.6
20260903001501 80 120 15.0 31.0 0.00 0.00 0.00 73 999.7
20260903001452 80 193 16.0 31.0 0.00 0.00 0.00 73 999.6
20260903001001 80 141 11.0 23.0 0.00 0.00 0.00 73 999.7
20260903000943 80 187 12.0 23.0 0.00 0.00 0.00 73 999.7
20260903000502 80 219 12.0 20.0 0.00 0.00 0.00 74 999.7
20260903000433 80 218 13.0 20.0 0.00 0.00 0.00 74 999.7
20260903000001 80 225 12.0 23.0 0.00 0.00 0.00 74 999.7
20260902235922 80 222 13.0 23.0 0.00 0.00 0.00 74 999.7
20260902235502 80 234 9.0 19.0 0.00 0.00 0.00 74 999.6
20260902235413 80 228 9.0 19.0 0.00 0.00 0.00 74 999.7
20260902235001 80 220 12.0 22.0 0.00 0.00 0.00 74 999.7
20260902234501 80 188 10.0 22.0 0.00 0.00 0.00 74 999.6
20260902234353 80 253 13.0 26.0 0.00 0.00 0.00 73 999.6
20260902234001 80 225 14.0 26.0 0.00 0.00 0.00 74 999.5
20260902233842 80 202 15.0 23.0 0.00 0.00 0.00 73 999.6
20260902233501 80 180 12.0 19.0 0.00 0.00 0.00 74 999.4
20260902233333 79 173 7.0 19.0 0.00 0.00 0.00 75 999.5
20260902233001 79 177 12.0 22.0 0.00 0.00 0.00 74 999.4
20260902232822 79 244 12.0 22.0 0.00 0.00 0.00 75 999.4
20260902232501 79 220 12.0 22.0 0.00 0.00 0.00 75 999.3
20260902232312 79 231 13.0 22.0 0.00 0.00 0.00 74 999.2
20260902232001 79 187 9.0 24.0 0.00 0.00 0.00 74 999.3
20260902231802 79 200 14.0 24.0 0.00 0.00 0.00 74 999.2
20260902231500 79 122 16.0 24.0 0.00 0.00 0.00 74 999.2
20260902231252 79 218 12.0 23.0 0.00 0.00 0.00 74 999.2
20260902231001 79 196 16.0 23.0 0.00 0.00 0.00 74 999.1
20260902230742 79 181 12.0 22.0 0.00 0.00 0.00 74 999.1
20260902230501 79 311 14.0 22.0 0.00 0.00 0.00 74 999.1
20260902230232 79 230 14.0 22.0 0.00 0.00 0.00 74 999.1
20260902230001 79 272 12.0 24.0 0.00 0.00 0.00 74 999.1
20260902225722 79 253 16.0 24.0 0.00 0.00 0.00 74 999.1
20260902225501 79 235 10.0 18.0 0.00 0.00 0.00 74 999.1
20260902225212 79 203 8.0 26.0 0.00 0.00 0.00 74 999.1
20260902225000 79 260 13.0 26.0 0.00 0.00 0.00 74 999.1
20260902224702 79 218 13.0 23.0 0.00 0.00 0.00 74 999.1
20260902224501 79 217 12.0 19.0 0.00 0.00 0.00 74 999.1
20260902224152 79 299 10.0 21.0 0.00 0.00 0.00 74 999.1
20260902224000 79 221 12.0 21.0 0.00 0.00 0.00 74 999.1
20260902223642 79 244 12.0 21.0 0.00 0.00 0.00 74 999.1
20260902223501 79 178 12.0 21.0 0.00 0.00 0.00 74 999.2
20260902223132 79 251 10.0 21.0 0.00 0.00 0.00 75 999.0
20260902223001 79 184 14.0 21.0 0.00 0.00 0.00 74 999.1
20260902222622 79 240 13.0 20.0 0.00 0.00 0.00 74 999.0
20260902222500 79 205 10.0 19.0 0.00 0.00 0.00 75 999.1
20260902222112 79 277 13.0 26.0 0.00 0.00 0.00 74 999.0
20260902222001 79 155 15.0 26.0 0.00 0.00 0.00 74 999.0
20260902221602 79 240 14.0 21.0 0.00 0.00 0.00 74 999.0
20260902221500 79 204 11.0 22.0 0.00 0.00 0.00 75 999.0
20260902221052 79 205 15.0 22.0 0.00 0.00 0.00 74 999.0
20260902221001 79 151 14.0 22.0 0.00 0.00 0.00 75 999.0
20260902220541 79 242 15.0 22.0 0.00 0.00 0.00 74 999.0
20260902220500 79 222 12.0 22.0 0.00 0.00 0.00 74 999.0
20260902220032 79 175 9.0 20.0 0.00 0.00 0.00 74 999.1
20260902220001 79 223 9.0 20.0 0.00 0.00 0.00 74 999.0
20260902215521 79 214 14.0 21.0 0.00 0.00 0.00 74 998.9
20260902215500 79 197 12.0 21.0 0.00 0.00 0.00 74 999.0
20260902215012 79 221 10.0 20.0 0.00 0.00 0.00 74 998.9
20260902215000 79 169 11.0 20.0 0.00 0.00 0.00 74 998.9
20260902214503 79 144 11.0 22.0 0.00 0.00 0.00 74 998.9
20260902214501 79 178 11.0 22.0 0.00 0.00 0.00 74 998.9
20260902214000 79 176 10.0 22.0 0.00 0.00 0.00 74 999.0
20260902213951 79 148 11.0 22.0 0.00 0.00 0.00 74 998.9
20260902213502 79 206 10.0 20.0 0.00 0.00 0.00 74 998.9
20260902213442 79 198 7.0 20.0 0.00 0.00 0.00 74 998.9
20260902213000 79 193 9.0 19.0 0.00 0.00 0.00 74 998.9
20260902212931 79 232 10.0 19.0 0.00 0.00 0.00 74 998.9
20260902212500 79 122 12.0 19.0 0.00 0.00 0.00 75 998.9
20260902212422 79 223 12.0 19.0 0.00 0.00 0.00 75 998.8
20260902211959 79 231 11.0 25.0 0.00 0.00 0.00 75 998.8
20260902211911 79 219 12.0 25.0 0.00 0.00 0.00 74 998.8
20260902211500 79 225 12.0 23.0 0.00 0.00 0.00 74 998.8
20260902211402 79 235 13.0 23.0 0.00 0.00 0.00 74 998.8
20260902210959 79 139 10.0 19.0 0.00 0.00 0.00 74 998.8
20260902210851 79 161 11.0 19.0 0.00 0.00 0.00 75 998.8
20260902210500 79 216 9.0 16.0 0.00 0.00 0.00 74 998.7
20260902210342 79 227 8.0 16.0 0.00 0.00 0.00 75 998.8
20260902205959 79 239 10.0 17.0 0.00 0.00 0.00 74 998.7
20260902205831 79 251 8.0 18.0 0.00 0.00 0.00 74 998.8
20260902205500 79 221 10.0 18.0 0.00 0.00 0.00 74 998.7
20260902205321 79 211 10.0 17.0 0.00 0.00 0.00 74 998.8
20260902205000 79 205 10.0 21.0 0.00 0.00 0.00 74 998.8
20260902204810 79 234 12.0 21.0 0.00 0.00 0.00 74 998.7
20260902204500 79 186 13.0 21.0 0.00 0.00 0.00 74 998.7
20260902204301 79 213 10.0 19.0 0.00 0.00 0.00 74 998.7
20260902204000 79 219 9.0 20.0 0.00 0.00 0.00 74 998.7
20260902203751 79 222 10.0 20.0 0.00 0.00 0.00 74 998.7
20260902203459 79 211 14.0 20.0 0.00 0.00 0.00 74 998.5
20260902203241 79 227 13.0 21.0 0.00 0.00 0.00 74 998.6
20260902203000 79 223 10.0 21.0 0.00 0.00 0.00 74 998.6
20260902202731 80 254 7.0 17.0 0.00 0.00 0.00 74 998.6
20260902202459 80 238 11.0 17.0 0.00 0.00 0.00 74 998.5
20260902202221 80 233 10.0 17.0 0.00 0.00 0.00 73 998.4
20260902201959 80 146 8.0 13.0 0.00 0.00 0.00 73 998.4
20260902201711 80 133 7.0 13.0 0.00 0.00 0.00 73 998.4
20260902201500 80 134 7.0 13.0 0.00 0.00 0.00 73 998.4
20260902201201 80 152 1.0 13.0 0.00 0.00 0.00 73 998.4
20260902200959 80 43 2.0 13.0 0.00 0.00 0.00 73 998.5
20260902200651 80 141 4.0 15.0 0.00 0.00 0.00 73 998.5
20260902200500 80 19 6.0 15.0 0.00 0.00 0.00 73 998.6
20260902200140 80 188 8.0 15.0 0.00 0.00 0.00 73 998.6
20260902195959 80 192 9.0 19.0 0.00 0.00 0.00 73 998.5
20260902195631 80 114 9.0 19.0 0.00 0.00 0.00 73 998.6
20260902195500 80 207 1.0 15.0 0.00 0.00 0.00 73 998.7
20260902195120 80 126 10.0 17.0 0.00 0.00 0.00 73 998.6
20260902194959 80 187 8.0 17.0 0.00 0.00 0.00 73 998.6
20260902194611 80 77 4.0 15.0 0.00 0.00 0.00 73 998.7
20260902194459 80 147 6.0 17.0 0.00 0.00 0.00 73 998.6
20260902194101 80 220 10.0 20.0 0.00 0.00 0.00 73 998.7
20260902193959 80 219 6.0 20.0 0.00 0.00 0.00 73 998.7
20260902193550 80 197 8.0 18.0 0.00 0.00 0.00 73 998.7
20260902193459 80 133 8.0 24.0 0.00 0.00 0.00 73 998.7
20260902193041 80 145 13.0 24.0 0.00 0.00 0.00 73 998.7
20260902193000 80 127 13.0 19.0 0.00 0.00 0.00 73 998.8
20260902192530 80 112 5.0 24.0 0.00 0.00 0.00 73 998.8
20260902192459 80 140 3.0 24.0 0.00 0.00 0.00 73 998.8
20260902192021 80 161 5.0 18.0 0.00 0.00 0.00 73 998.8
20260902191959 80 149 6.0 18.0 0.00 0.00 0.00 73 998.9
20260902191510 80 203 10.0 18.0 0.00 0.00 0.00 73 998.9
20260902191459 80 137 9.0 18.0 0.00 0.00 0.00 73 998.9
20260902191001 80 159 10.0 18.0 0.00 0.00 0.00 74 998.9
20260902190959 80 119 10.0 18.0 0.00 0.00 0.00 74 998.9
20260902190459 80 133 12.0 21.0 0.00 0.00 0.00 74 999.0
20260902190450 80 200 12.0 21.0 0.00 0.00 0.00 74 999.0
20260902185959 80 126 8.0 18.0 0.00 0.00 0.00 73 999.0
20260902185940 80 175 8.0 18.0 0.00 0.00 0.00 73 999.0
20260902185458 80 167 2.0 17.0 0.00 0.00 0.00 74 999.0
20260902185430 80 226 4.0 17.0 0.00 0.00 0.00 74 998.9
20260902184959 80 197 9.0 19.0 0.00 0.00 0.00 74 999.0
20260902184920 80 161 11.0 19.0 0.00 0.00 0.00 74 999.0
20260902184458 80 207 10.0 23.0 0.00 0.00 0.00 74 999.0
20260902184411 80 280 14.0 26.0 0.00 0.00 0.00 74 998.9
20260902183959 80 216 13.0 26.0 0.00 0.00 0.00 74 998.9
20260902183900 80 199 12.0 28.0 0.00 0.00 0.00 74 999.1
20260902183459 80 207 18.0 28.0 0.00 0.00 0.00 74 999.0
20260902183351 80 220 17.0 25.0 0.00 0.00 0.00 74 998.9
20260902182959 80 256 15.0 24.0 0.00 0.00 0.00 74 999.0
20260902182459 80 276 8.0 25.0 0.00 0.00 0.00 74 999.1
20260902182330 80 189 15.0 22.0 0.00 0.00 0.00 74 999.0
20260902181958 80 184 9.0 21.0 0.00 0.00 0.00 74 999.1
20260902181820 80 232 13.0 23.0 0.00 0.00 0.00 74 999.1
20260902181459 80 266 16.0 23.0 0.00 0.00 0.00 74 999.2
20260902181310 80 180 10.0 22.0 0.00 0.00 0.00 74 999.3
20260902180958 80 184 13.0 22.0 0.00 0.00 0.00 74 999.3
20260902180759 80 208 14.0 22.0 0.00 0.00 0.00 74 999.4
20260902180458 80 208 12.0 22.0 0.00 0.00 0.00 74 999.5
20260902175959 80 235 13.0 20.0 0.00 0.00 0.00 74 999.6
20260902175739 80 253 10.0 15.0 0.00 0.00 0.00 74 999.7
20260902175458 80 157 10.0 16.0 0.00 0.00 0.00 74 999.7
20260902174958 80 128 8.0 17.0 0.00 0.00 0.00 74 999.8
20260902174720 80 202 9.0 17.0 0.00 0.00 0.00 74 999.8
20260902174459 80 222 10.0 19.0 0.00 0.00 0.00 75 999.9
20260902174209 80 235 13.0 19.0 0.00 0.00 0.00 74 999.9
20260902173958 80 169 10.0 19.0 0.00 0.00 0.00 74 999.9
20260902173700 80 174 11.0 19.0 0.00 0.00 0.00 74 999.9
20260902173459 80 148 10.0 18.0 0.00 0.00 0.00 74 999.9
20260902173149 80 223 8.0 15.0 0.00 0.00 0.00 74 999.8
20260902172958 80 187 9.0 20.0 0.00 0.00 0.00 74 999.9
20260902172458 80 222 12.0 18.0 0.00 0.00 0.00 74 999.9
20260902172129 80 183 11.0 19.0 0.00 0.00 0.00 74 999.8
20260902171958 80 216 11.0 20.0 0.00 0.00 0.00 74 999.7
20260902171458 80 202 16.0 23.0 0.00 0.00 0.00 74 999.8
20260902171109 80 197 13.0 21.0 0.00 0.00 0.00 74 999.9
20260902170958 80 234 10.0 15.0 0.00 0.00 0.00 74 999.9
20260902170458 80 236 13.0 21.0 0.00 0.00 0.00 74 999.9
20260902170050 80 190 12.0 20.0 0.00 0.00 0.00 74 999.8
20260902165958 81 228 11.0 22.0 0.00 0.00 0.00 74 999.9
20260902165539 81 175 13.0 21.0 0.00 0.00 0.00 74 999.9
20260902165458 81 216 12.0 24.0 0.00 0.00 0.00 74 999.9
20260902165029 81 231 14.0 24.0 0.00 0.00 0.00 73 1000.0
20260902164958 81 163 8.0 14.0 0.00 0.00 0.00 73 1000.0
20260902164458 81 130 7.0 16.0 0.00 0.00 0.00 73 1000.0
20260902164009 81 113 7.0 27.0 0.00 0.00 0.00 73 999.9
20260902163958 81 181 6.0 27.0 0.00 0.00 0.00 73 999.9
20260902163500 81 303 5.0 18.0 0.00 0.00 0.00 72 999.9
20260902163457 81 305 5.0 18.0 0.00 0.00 0.00 72 999.8
20260902162958 81 218 5.0 15.0 0.00 0.00 0.00 73 999.9
20260902162949 81 199 5.0 15.0 0.00 0.00 0.00 73 999.9
20260902162457 81 167 10.0 19.0 0.00 0.00 0.00 73 999.8
20260902162439 81 215 10.0 17.0 0.00 0.00 0.00 73 999.8
20260902161958 81 132 6.0 11.0 0.00 0.00 0.00 73 999.9
20260902161458 81 173 7.0 13.0 0.00 0.00 0.00 73 999.8
20260902161419 81 157 8.0 13.0 0.00 0.00 0.00 73 999.8
20260902160957 81 201 9.0 17.0 0.00 0.00 0.00 74 999.8
20260902160909 81 200 8.0 18.0 0.00 0.00 0.00 73 999.8
20260902160458 81 141 11.0 18.0 0.00 0.00 0.00 74 999.9
20260902160359 81 179 8.0 14.0 0.00 0.00 0.00 74 999.8
20260902155957 81 129 6.0 15.0 0.00 0.00 0.00 73 999.9
20260902155849 81 148 5.0 16.0 0.00 0.00 0.00 73 999.9
20260902155457 82 247 8.0 16.0 0.00 0.00 0.00 73 999.9
20260902155339 82 294 9.0 16.0 0.00 0.00 0.00 73 999.9
20260902154958 82 235 7.0 14.0 0.00 0.00 0.00 73 1000.0
20260902154457 82 175 9.0 14.0 0.00 0.00 0.00 72 999.9
20260902154319 82 137 6.0 24.0 0.00 0.00 0.00 72 999.9
20260902153958 82 116 8.0 24.0 0.00 0.00 0.00 72 999.9
20260902153809 82 37 9.0 18.0 0.00 0.00 0.00 72 999.9
20260902153457 82 12 10.0 18.0 0.00 0.00 0.00 72 1000.0
20260902153259 82 23 6.0 18.0 0.00 0.00 0.00 72 1000.0
20260902152958 82 319 1.0 10.0 0.00 0.00 0.00 72 999.9
20260902152749 82 16 2.0 10.0 0.00 0.00 0.00 72 999.9
20260902152457 82 38 3.0 10.0 0.00 0.00 0.00 72 999.9
20260902151957 82 58 4.0 9.0 0.00 0.00 0.00 72 1000.0
20260902151729 82 208 3.0 7.0 0.00 0.00 0.00 72 1000.0
20260902151457 82 53 3.0 9.0 0.00 0.00 0.00 72 1000.1
20260902151218 82 30 3.0 9.0 0.00 0.00 0.00 72 1000.0
20260902150957 82 23 3.0 7.0 0.00 0.00 0.00 72 1000.0
20260902150709 82 22 5.0 11.0 0.00 0.00 0.00 72 999.9
20260902150457 82 196 6.0 14.0 0.00 0.00 0.00 72 1000.0
20260902145957 82 62 7.0 21.0 0.00 0.00 0.00 72 1000.1
20260902145648 82 218 10.0 19.0 0.00 0.00 0.00 72 1000.1
20260902145457 82 38 8.0 13.0 0.00 0.00 0.00 72 1000.1
20260902145139 82 129 3.0 19.0 0.00 0.00 0.00 73 1000.2
20260902144958 82 158 8.0 19.0 0.00 0.00 0.00 73 1000.2
20260902144628 82 193 9.0 14.0 0.00 0.00 0.00 73 1000.2
20260902144457 82 104 6.0 18.0 0.00 0.00 0.00 72 1000.3
20260902144118 82 168 5.0 18.0 0.00 0.00 0.00 73 1000.3
20260902143957 82 190 10.0 15.0 0.00 0.00 0.00 73 1000.3
20260902143609 82 71 4.0 17.0 0.00 0.00 0.00 73 1000.4
20260902143456 82 127 7.0 17.0 0.00 0.00 0.00 73 1000.4
20260902143058 82 157 5.0 17.0 0.00 0.00 0.00 73 1000.3
20260902142957 82 170 5.0 17.0 0.00 0.00 0.00 73 1000.2
20260902142549 82 193 9.0 16.0 0.00 0.00 0.00 73 1000.4
20260902142457 82 128 10.0 16.0 0.00 0.00 0.00 73 1000.3
20260902142038 82 143 8.0 24.0 0.00 0.00 0.00 73 1000.3
20260902141957 82 116 9.0 24.0 0.00 0.00 0.00 73 1000.3
20260902141457 82 165 10.0 16.0 0.00 0.00 0.00 73 1000.3
20260902141018 82 188 8.0 17.0 0.00 0.00 0.00 73 1000.3
20260902140957 82 177 7.0 17.0 0.00 0.00 0.00 73 1000.3
20260902140508 82 154 10.0 17.0 0.00 0.00 0.00 73 1000.3
20260902140456 82 125 10.0 17.0 0.00 0.00 0.00 73 1000.3
20260902135959 83 189 6.0 18.0 0.00 0.00 0.00 73 1000.1
20260902135957 83 155 6.0 18.0 0.00 0.00 0.00 73 1000.1
20260902135456 83 130 8.0 21.0 0.00 0.00 0.00 73 1000.1
20260902134956 83 169 8.0 18.0 0.00 0.00 0.00 73 1000.1
20260902134938 83 180 8.0 18.0 0.00 0.00 0.00 73 1000.0
20260902134457 83 24 7.0 16.0 0.00 0.00 0.00 72 1000.1
20260902134428 83 348 6.0 16.0 0.00 0.00 0.00 73 1000.1
20260902133956 83 160 8.0 27.0 0.00 0.00 0.00 72 1000.2
20260902133917 83 174 10.0 27.0 0.00 0.00 0.00 72 1000.1
20260902133456 83 228 11.0 24.0 0.00 0.00 0.00 72 1000.0
20260902133408 83 138 10.0 24.0 0.00 0.00 0.00 72 1000.0
20260902132957 83 135 4.0 15.0 0.00 0.00 0.00 72 1000.0
20260902132858 83 92 7.0 15.0 0.00 0.00 0.00 72 1000.1
20260902132456 83 50 3.0 25.0 0.00 0.00 0.00 72 1000.1
20260902132347 83 208 4.0 25.0 0.00 0.00 0.00 72 1000.0
20260902131956 83 129 6.0 19.0 0.00 0.00 0.00 72 1000.1
20260902131838 83 188 5.0 19.0 0.00 0.00 0.00 72 1000.0
20260902131456 83 308 9.0 15.0 0.00 0.00 0.00 72 1000.0
20260902131327 83 71 7.0 21.0 0.00 0.00 0.00 72 999.9
20260902130956 83 41 10.0 21.0 0.00 0.00 0.00 72 999.9
20260902130817 83 222 9.0 17.0 0.00 0.00 0.00 72 999.8
20260902130456 83 49 1.0 10.0 0.00 0.00 0.00 72 999.8
20260902130308 83 53 6.0 14.0 0.00 0.00 0.00 72 999.8
20260902125956 83 133 5.0 14.0 0.00 0.00 0.00 72 999.7
20260902125757 83 62 5.0 12.0 0.00 0.00 0.00 72 999.7
20260902125456 84 56 7.0 11.0 0.00 0.00 0.00 72 999.7
20260902125247 84 88 3.0 11.0 0.00 0.00 0.00 72 999.7
20260902124956 84 113 2.0 11.0 0.00 0.00 0.00 72 999.7
20260902124738 84 113 2.0 8.0 0.00 0.00 0.00 72 999.6
20260902124455 84 4 1.0 13.0 0.00 0.00 0.00 72 999.6
20260902124227 84 98 7.0 13.0 0.00 0.00 0.00 72 999.5
20260902123956 84 117 2.0 10.0 0.00 0.00 0.00 72 999.6
20260902123717 84 134 2.0 12.0 0.00 0.00 0.00 72 999.5
20260902123456 84 169 8.0 12.0 0.00 0.00 0.00 72 999.5
20260902123207 84 15 5.0 11.0 0.00 0.00 0.00 72 999.6
20260902122956 84 41 4.0 17.0 0.00 0.00 0.00 72 999.5
20260902122657 84 77 7.0 24.0 0.00 0.00 0.00 72 999.5
20260902122456 84 130 8.0 24.0 0.00 0.00 0.00 72 999.5
20260902122148 84 40 8.0 13.0 0.00 0.00 0.00 72 999.6
20260902121955 84 205 6.0 13.0 0.00 0.00 0.00 72 999.5
20260902121456 84 59 4.0 14.0 0.00 0.00 0.00 72 999.5
20260902121127 84 75 2.0 15.0 0.00 0.00 0.00 72 999.4
20260902120956 84 106 7.0 23.0 0.00 0.00 0.00 72 999.4
20260902120616 84 45 11.0 28.0 0.00 0.00 0.00 72 999.4
20260902120455 84 197 13.0 28.0 0.00 0.00 0.00 72 999.2
20260902120107 84 135 5.0 10.0 0.00 0.00 0.00 72 999.3
20260902115955 84 141 5.0 17.0 0.00 0.00 0.00 72 999.4
20260902115557 84 169 7.0 21.0 0.00 0.00 0.00 72 999.2
20260902115456 84 101 9.0 21.0 0.00 0.00 0.00 72 999.3
20260902115047 84 71 3.0 17.0 0.00 0.00 0.00 72 999.2
20260902114955 84 22 4.0 17.0 0.00 0.00 0.00 72 999.2
20260902114537 84 64 6.0 26.0 0.00 0.00 0.00 72 999.0
20260902114455 84 10 3.0 26.0 0.00 0.00 0.00 72 999.1
20260902114027 84 193 6.0 16.0 0.00 0.00 0.00 72 999.0
20260902113956 84 108 4.0 16.0 0.00 0.00 0.00 72 999.0
20260902113517 84 23 6.0 18.0 0.00 0.00 0.00 72 998.9
20260902113455 84 204 4.0 18.0 0.00 0.00 0.00 72 998.9
20260902113007 85 80 2.0 10.0 0.00 0.00 0.00 72 998.9
20260902112956 85 29 2.0 11.0 0.00 0.00 0.00 72 998.9
20260902112457 85 54 6.0 11.0 0.00 0.00 0.00 72 998.8
20260902112455 85 28 6.0 11.0 0.00 0.00 0.00 72 998.8
20260902111955 85 343 1.0 16.0 0.00 0.00 0.00 72 998.9
20260902111947 85 30 1.0 16.0 0.00 0.00 0.00 72 998.8
20260902111455 85 14 8.0 25.0 0.00 0.00 0.00 72 998.8
20260902111437 85 322 9.0 25.0 0.00 0.00 0.00 72 998.7
20260902110955 85 180 4.0 8.0 0.00 0.00 0.00 72 998.7
20260902110926 85 50 5.0 8.0 0.00 0.00 0.00 72 998.8
20260902110455 85 50 3.0 9.0 0.00 0.00 0.00 72 998.6
20260902110417 85 145 4.0 9.0 0.00 0.00 0.00 72 998.6
20260902105955 85 109 4.0 12.0 0.00 0.00 0.00 72 998.6
20260902105906 85 123 6.0 17.0 0.00 0.00 0.00 72 998.5
20260902105455 85 73 9.0 17.0 0.00 0.00 0.00 72 998.5
20260902105357 85 130 4.0 9.0 0.00 0.00 0.00 72 998.5
20260902104956 85 129 4.0 20.0 0.00 0.00 0.00 72 998.5
20260902104846 85 45 7.0 20.0 0.00 0.00 0.00 72 998.5
20260902104455 85 45 8.0 33.0 0.00 0.00 0.00 72 998.6
20260902104337 85 45 8.0 33.0 0.00 0.00 0.00 72 998.5
20260902103956 85 38 5.0 12.0 0.00 0.00 0.00 72 998.5
20260902103826 85 69 6.0 12.0 0.00 0.00 0.00 72 998.5
20260902103455 85 129 6.0 11.0 0.00 0.00 0.00 72 998.4
20260902103316 86 357 5.0 11.0 0.00 0.00 0.00 72 998.4
20260902102955 86 47 3.0 14.0 0.00 0.00 0.00 72 998.3
20260902102807 86 119 5.0 18.0 0.00 0.00 0.00 72 998.2
20260902102455 86 284 7.0 18.0 0.00 0.00 0.00 71 998.3
20260902101956 86 23 4.0 11.0 0.00 0.00 0.00 71 998.2
20260902101747 86 52 6.0 9.0 0.00 0.00 0.00 71 998.3
20260902101454 86 168 5.0 14.0 0.00 0.00 0.00 72 998.3
20260902101236 86 69 7.0 14.0 0.00 0.00 0.00 72 998.2
20260902100955 86 70 4.0 14.0 0.00 0.00 0.00 72 998.1
20260902100727 86 40 9.0 14.0 0.00 0.00 0.00 72 998.2
20260902100454 86 47 3.0 7.0 0.00 0.00 0.00 72 998.2
20260902100216 86 1 1.0 7.0 0.00 0.00 0.00 71 998.2
20260902095955 86 358 5.0 11.0 0.00 0.00 0.00 71 998.1
20260902095706 86 85 6.0 11.0 0.00 0.00 0.00 71 998.2
20260902095455 86 130 3.0 7.0 0.00 0.00 0.00 71 998.1
20260902095156 86 109 2.0 7.0 0.00 0.00 0.00 71 998.1
20260902094955 86 47 2.0 8.0 0.00 0.00 0.00 71 998.1
20260902094646 87 19 3.0 8.0 0.00 0.00 0.00 71 998.1
20260902094455 87 82 2.0 8.0 0.00 0.00 0.00 71 998.0
20260902094136 87 44 4.0 14.0 0.00 0.00 0.00 71 998.0
20260902093954 87 64 3.0 14.0 0.00 0.00 0.00 71 997.9
20260902093626 87 89 2.0 10.0 0.00 0.00 0.00 71 998.0
20260902093455 87 44 4.0 10.0 0.00 0.00 0.00 71 998.0
20260902093116 87 95 5.0 8.0 0.00 0.00 0.00 71 997.9
20260902092954 87 21 3.0 8.0 0.00 0.00 0.00 71 997.9
20260902092606 87 129 3.0 16.0 0.00 0.00 0.00 71 997.8
20260902092455 87 55 6.0 16.0 0.00 0.00 0.00 71 997.9
20260902092056 87 170 8.0 19.0 0.00 0.00 0.00 71 997.8
20260902091955 87 177 8.0 30.0 0.00 0.00 0.00 71 997.7
20260902091546 87 167 20.0 30.0 0.00 0.00 0.00 71 997.8
20260902091454 87 160 12.0 22.0 0.00 0.00 0.00 71 997.7
20260902090954 87 180 9.0 23.0 0.00 0.00 0.00 71 997.7
20260902090525 87 188 12.0 20.0 0.00 0.00 0.00 71 997.7
20260902090454 87 191 12.0 20.0 0.00 0.00 0.00 71 997.7
20260902090016 87 114 8.0 22.0 0.00 0.00 0.00 71 997.7
20260902085954 87 147 11.0 22.0 0.00 0.00 0.00 71 997.8
20260902085505 88 160 4.0 18.0 0.00 0.00 0.00 70 997.7
20260902085454 88 161 4.0 18.0 0.00 0.00 0.00 70 997.7
20260902084957 87 202 4.0 16.0 0.00 0.00 0.00 71 997.7
20260902084954 87 129 4.0 16.0 0.00 0.00 0.00 71 997.7
20260902084454 87 94 7.0 19.0 0.00 0.00 0.00 71 997.7
20260902084445 87 142 6.0 19.0 0.00 0.00 0.00 71 997.6
20260902083954 88 169 9.0 20.0 0.00 0.00 0.00 71 997.7
20260902083935 88 158 5.0 20.0 0.00 0.00 0.00 71 997.7
20260902083454 87 165 6.0 19.0 0.00 0.00 0.00 71 997.7
20260902083426 87 32 6.0 19.0 0.00 0.00 0.00 72 997.6
20260902082954 87 84 7.0 16.0 0.00 0.00 0.00 72 997.6
20260902082915 87 170 8.0 17.0 0.00 0.00 0.00 72 997.6
20260902082454 87 157 10.0 17.0 0.00 0.00 0.00 72 997.6
20260902082406 87 165 11.0 16.0 0.00 0.00 0.00 72 997.6
20260902081953 87 47 3.0 8.0 0.00 0.00 0.00 72 997.6
20260902081855 87 80 2.0 9.0 0.00 0.00 0.00 72 997.6
20260902081454 87 89 6.0 21.0 0.00 0.00 0.00 72 997.5
20260902081345 87 174 9.0 21.0 0.00 0.00 0.00 72 997.6
20260902080954 88 219 12.0 21.0 0.00 0.00 0.00 71 997.4
20260902080835 88 238 14.0 24.0 0.00 0.00 0.00 71 997.5
20260902080454 88 159 10.0 24.0 0.00 0.00 0.00 70 997.5
20260902080325 88 176 11.0 23.0 0.00 0.00 0.00 70 997.4
20260902075954 89 162 12.0 23.0 0.00 0.00 0.00 70 997.4
20260902075815 89 169 7.0 22.0 0.00 0.00 0.00 70 997.4
20260902075453 89 192 12.0 21.0 0.00 0.00 0.00 69 997.4
20260902075306 89 360 9.0 21.0 0.00 0.00 0.00 69 997.4
20260902074954 89 161 9.0 23.0 0.00 0.00 0.00 70 997.4
20260902074755 89 221 10.0 23.0 0.00 0.00 0.00 69 997.3
20260902074453 89 221 12.0 26.0 0.00 0.00 0.00 69 997.4
20260902074245 90 237 17.0 26.0 0.00 0.00 0.00 69 997.4
20260902073953 90 210 2.0 15.0 0.00 0.00 0.00 69 997.4
20260902073735 90 103 8.0 25.0 0.00 0.00 0.00 69 997.5
20260902073454 90 133 10.0 25.0 0.00 0.00 0.00 68 997.4
20260902073225 90 178 6.0 15.0 0.00 0.00 0.00 68 997.4
20260902072953 90 44 6.0 15.0 0.00 0.00 0.00 68 997.6
20260902072715 90 265 1.0 12.0 0.00 0.00 0.00 69 997.4
20260902072454 90 148 5.0 21.0 0.00 0.00 0.00 69 997.4
20260902072205 90 126 10.0 21.0 0.00 0.00 0.00 68 997.3
20260902071953 90 147 10.0 17.0 0.00 0.00 0.00 68 997.4
20260902071655 90 219 3.0 10.0 0.00 0.00 0.00 69 997.4
20260902071453 90 104 4.0 14.0 0.00 0.00 0.00 68 997.4
20260902071145 90 54 5.0 15.0 0.00 0.00 0.00 69 997.4
20260902070953 90 1 3.0 15.0 0.00 0.00 0.00 69 997.5
20260902070634 90 209 9.0 24.0 0.00 0.00 0.00 68 997.5
20260902070453 90 152 4.0 24.0 0.00 0.00 0.00 69 997.5
20260902070125 90 216 14.0 24.0 0.00 0.00 0.00 68 997.4
20260902065954 90 221 2.0 11.0 0.00 0.00 0.00 69 997.5
20260902065615 90 25 5.0 9.0 0.00 0.00 0.00 69 997.6
20260902065453 89 224 3.0 7.0 0.00 0.00 0.00 69 997.6
20260902065105 89 162 1.0 14.0 0.00 0.00 0.00 70 997.7
20260902064953 89 51 5.0 14.0 0.00 0.00 0.00 69 997.7
20260902064554 89 60 5.0 14.0 0.00 0.00 0.00 70 997.7
20260902064453 89 40 5.0 14.0 0.00 0.00 0.00 69 997.7
20260902064045 89 220 7.0 17.0 0.00 0.00 0.00 69 997.8
20260902063953 89 193 7.0 17.0 0.00 0.00 0.00 69 997.7
20260902063534 90 44 4.0 19.0 0.00 0.00 0.00 69 997.8
20260902063453 90 50 6.0 19.0 0.00 0.00 0.00 68 997.8
20260902063025 89 244 4.0 12.0 0.00 0.00 0.00 69 997.8
20260902062953 89 351 4.0 12.0 0.00 0.00 0.00 69 997.8
20260902062514 89 57 2.0 20.0 0.00 0.00 0.00 70 997.8
20260902062453 89 318 2.0 20.0 0.00 0.00 0.00 70 997.8
20260902062005 88 125 9.0 18.0 0.00 0.00 0.00 70 997.8
20260902061953 88 99 9.0 18.0 0.00 0.00 0.00 70 997.8
20260902061455 88 250 10.0 19.0 0.00 0.00 0.00 70 997.8
20260902061453 88 225 10.0 19.0 0.00 0.00 0.00 70 997.8
20260902060953 87 6 7.0 32.0 0.00 0.00 0.00 72 997.8
20260902060945 87 72 8.0 32.0 0.00 0.00 0.00 72 997.8
20260902060453 87 140 14.0 27.0 0.00 0.00 0.00 72 997.9
20260902055953 88 246 15.0 23.0 0.00 0.00 0.00 72 998.0
20260902055925 88 247 17.0 23.0 0.00 0.00 0.00 71 997.9
20260902055453 87 224 12.0 24.0 0.00 0.00 0.00 72 997.9
20260902055414 87 227 11.0 24.0 0.00 0.00 0.00 72 998.0
20260902054953 87 223 15.0 21.0 0.00 0.00 0.00 71 997.9
20260902054904 88 161 15.0 21.0 0.00 0.00 0.00 71 998.0
20260902054452 88 196 11.0 21.0 0.00 0.00 0.00 71 998.0
20260902053953 88 245 10.0 24.0 0.00 0.00 0.00 71 998.1
20260902053844 87 9 9.0 24.0 0.00 0.00 0.00 72 998.1
20260902053452 88 164 14.0 22.0 0.00 0.00 0.00 70 998.1
20260902053334 88 166 11.0 21.0 0.00 0.00 0.00 70 998.1
20260902052952 88 201 14.0 22.0 0.00 0.00 0.00 70 998.1
20260902052824 88 213 11.0 24.0 0.00 0.00 0.00 70 998.1
20260902052452 88 199 11.0 23.0 0.00 0.00 0.00 70 998.0
20260902052314 88 174 12.0 17.0 0.00 0.00 0.00 70 998.1
20260902051953 88 226 10.0 29.0 0.00 0.00 0.00 70 998.2
20260902051804 88 222 12.0 29.0 0.00 0.00 0.00 70 998.2
20260902051452 88 229 15.0 30.0 0.00 0.00 0.00 70 998.2
20260902051254 88 221 13.0 30.0 0.00 0.00 0.00 70 998.3
20260902050952 87 227 1.0 33.0 0.00 0.00 0.00 72 998.3
20260902050452 87 166 9.0 20.0 0.00 0.00 0.00 72 998.4
20260902050232 86 286 9.0 33.0 0.00 0.00 0.00 73 998.5
20260902045952 86 175 15.0 33.0 0.00 0.00 0.00 72 998.5
20260902045724 86 228 12.0 22.0 0.00 0.00 0.00 72 998.5
20260902045453 86 231 8.0 29.0 0.00 0.00 0.00 72 998.6
20260902045213 86 201 14.0 29.0 0.00 0.00 0.00 72 998.6
20260902044952 86 141 16.0 25.0 0.00 0.00 0.00 72 998.6
20260902044704 86 151 10.0 21.0 0.00 0.00 0.00 73 998.8
20260902044453 86 212 10.0 23.0 0.00 0.00 0.00 72 998.7
20260902044153 87 199 17.0 23.0 0.00 0.00 0.00 72 998.6
20260902043952 87 173 9.0 14.0 0.00 0.00 0.00 72 998.7
20260902043644 87 228 6.0 17.0 0.00 0.00 0.00 73 998.8
20260902043452 86 140 8.0 17.0 0.00 0.00 0.00 73 998.8
20260902043133 86 208 9.0 22.0 0.00 0.00 0.00 72 998.8
20260902042952 87 184 12.0 22.0 0.00 0.00 0.00 72 998.8
20260902042624 87 204 9.0 20.0 0.00 0.00 0.00 71 998.8
20260902042452 88 199 11.0 18.0 0.00 0.00 0.00 71 998.8
20260902042113 88 167 5.0 10.0 0.00 0.00 0.00 70 999.1
20260902041952 88 206 4.0 10.0 0.00 0.00 0.00 71 999.1
20260902041603 87 117 2.0 19.0 0.00 0.00 0.00 71 999.1
20260902041452 87 76 7.0 19.0 0.00 0.00 0.00 71 999.1
20260902041054 87 51 8.0 26.0 0.00 0.00 0.00 72 999.1
20260902040951 87 130 11.0 26.0 0.00 0.00 0.00 71 999.1
20260902040543 87 349 7.0 13.0 0.00 0.00 0.00 71 999.3
20260902040452 87 67 6.0 13.0 0.00 0.00 0.00 72 999.2
20260902040034 87 36 7.0 18.0 0.00 0.00 0.00 72 999.3
20260902035951 86 324 6.0 18.0 0.00 0.00 0.00 72 999.3